COSMOS 1275 DEB, 12670

Orbit data source: Space-Track

COSMOS 1275 DEB, 12670 is space debris in LEO originally from a launch on Thu, 04 Jun 1981 UTC launched from the Plesetsk Missile And Space Complex (PKMTR). Debris objects in space refer to the collection of defunct objects orbiting the Earth. Examples of debris include non-operational satellites, rocket bodies, and fragments generated from explosions, collisions, or faulty payload assembly.

Loading next visibility...
Identifier
12670, 1981-053AA
Orbit
LEO
Country
Flag of CISCIS
Related business
Manufacturer
Unknown
Mission
Spacecraft
Bus & Motor
Unknown
Mass
Unknown
Launch date (UTC)
1981-06-04 (44 years ago)
Launch vehicle
Unknown
Launch site
Plesetsk Missile And Space Complex (PKMTR)
Object type
Payload
Rocket body
Debris
Shape & HBR
Unknown
Radar Cross Section
Medium (>0.1 m² and <1 m²)

Expand to show TLE details & history
Last TLE update: 7 hours ago

TLE from 7 hours ago
0 COSMOS 1275 DEB
1 12670U 81053AA  25242.88704949  .00000677  00000-0  62141-3 0  9994
2 12670  82.9378  61.8330 0056163 162.0247 267.1130 13.80834186213704
Epoch: 2025-08-30T21:17Z
TLE epoch observation values (Epoch: 2025-08-30T21:17:21.075Z)
Latitude
67.49792°
Longitude
140.488°
Altitude
974.919 km
Speed
7.369 km/s
True Right ascension
05h 16m 33s
True Declination
67° 22' 47"
Sunlit
Object was in daylight at epoch
Visualization orbit readout
Latitude
Unknown
Longitude
Unknown
Altitude
Unknown
Speed
Unknown
Apparent Right ascension
Unknown
Apparent Declination
Unknown
Sunlit
N/A
Visualization observer readout
Local Sidereal Time
20:14:14
Azimuth
Unknown
Elevation
Unknown
Doppler factor
Unknown
Orbital elements
Apogee altitude
999.273 km
Perigee altitude
916.868 km
Semi-major axis
7,336.207 km
Eccentricity
0.00562
Inclination
82.9378°
RAAN
61.833°
Arg. of periapsis
162.0247°
True anomaly
266.47048°
Mean anomaly
267.113°
Eccentric anomaly
266.79171°
Mean motion
3.45411 °/min
Orbital period
104.22 mins
BSTAR
0.00062141
Loading maneuver chart data...
Computing Atmospheric mass density...
Loading historical data...
Loading historical data...
Loading historical data...
Loading historical data...
Loading historical data...
Loading historical data...
Loading historical data...

Documentation

Showing up to 5 results
|